200 serials | visual certexam suite 1.9 987 registration key

Date Name Success Rate
2009-10-17 06:18:47 AnyReader 1.9+PATCH 85%
2009-10-17 06:21:25 Developer Express NET Windows Forms Components Suite V2.0.0 For Visual Studio 2002.2003 100%
2009-10-17 06:27:02 Lazarus Registration DLL V1.0 59%
2009-10-17 06:30:50 Quick CD Ripper 1.9 0%
2009-10-17 06:35:00 Visual CertExam Suite V1.0.251 80%
2009-10-17 06:35:00 Visual CertExam Suite V1.1.284 65%
2009-10-22 23:27:12 Active Key Logger 1.9 7%
2009-10-22 23:27:17 Akram Media Creator 1.9 0%
2009-10-22 23:27:18 ALO Audio Center 1.9 0%
2009-10-22 23:27:20 AnyReader.1.9 60%
2009-10-22 23:27:21 Ardamax 1.9 0%
2009-10-22 23:27:21 Ardamax Keylogger 1.9 0%
2009-10-22 23:27:21 Ardamax Keylogger 2.9 Registration 56%
2009-10-22 23:27:21 Ardamaz Keylogger V 1.9 0%
2009-10-22 23:27:23 ArInstall 1.9 0%
2009-10-22 23:27:26 AutoMove 1.9 0%
2009-10-22 23:44:51 BuryBury 1.9 0%
2009-10-22 23:45:49 CammyPlus 1.9 0%
2009-10-22 23:45:49 Candy Crisis Retail 1.9 0%
2009-10-22 23:45:50 CDWinder 1.9 0%
2009-10-22 23:45:52 CK Picture Suite 1.9 0%
2009-10-22 23:45:55 CopyDVD 1.9 0%
2009-10-22 23:46:27 Diskinternal Word Recovery 1.9 31%
2009-10-22 23:46:29 DU SUPER CONTROLER 1.9 0%
2009-10-22 23:46:30 DVD To AVI 1.9 0%
2009-10-22 23:47:51 FireDaemon Pro 1.9 0%
2009-10-22 23:47:53 Folder View 1.9 0%
2009-10-22 23:47:53 FolderView 1.9 0%
2009-10-22 23:48:14 Icarus 1.9 0%
2009-10-22 23:48:17 Instant Message Graber 1.9 0%
2009-10-22 23:48:17 Internet Download Manager Registration 50%
2009-10-22 23:48:17 IP Search 1.9 0%
2009-10-22 23:48:18 IPSearch 1.9 0%
2009-10-22 23:48:18 Isobuster 1.9 0%
2009-10-22 23:48:48 MemoriesonTV Registration 0%
2009-10-22 23:48:49 Microsoft Registration Hacker - 39%
2009-10-22 23:48:49 Microsoft Visual Basic Express Edition 2008 Product Activation Key 64%
2009-10-22 23:48:50 Mobile Net Switch 1.9 0%
2009-10-22 23:48:52 MP3 Recorder XP 1.9 0%
2009-10-22 23:48:53 Music Library 1.9 0%
2009-10-22 23:49:02 Norton Internet Security 2005 Registration Guide 0%
2009-10-22 23:49:21 PDFcamp Pro 1.9 0%
2009-10-22 23:49:23 Picture To Icon 1.9 0%
2009-10-22 23:49:26 Powerful Cookies 1.9 0%
2009-10-22 23:49:42 Registration Wizard 56%
2009-10-22 23:49:52 Serlient 1.9 0%
2009-10-22 23:49:57 SoudForge ALL (No Registration Requiered) 0%
2009-10-22 23:50:02 Super Video Converter 1.9 0%
2009-10-22 23:50:02 Super Video Splitter 1.9 0%
2009-10-22 23:50:13 Turbodemo Album 1.9 0%
2009-10-22 23:50:26 Valve's Registration Armor Key-Gen 60%
2009-10-22 23:50:27 Visual Certexam Suit 1.9.925 55%
2009-10-22 23:50:27 Visual CertExam Suite 1.0.251 53%
2009-10-22 23:50:27 Visual Fox Pro Key By Swawel 0%
2009-10-22 23:50:27 Visual Key Control System CS Edition 1.5.0 0%
2009-10-22 23:50:27 Visual Key Control System SQL Edition 1.0.0 0%
2009-10-22 23:50:35 Willing Webcam 1.9 0%
2011-09-08 09:58:16 AceCapture 1.9 English 0%
2011-09-08 09:59:26 Active Key Logger 1.9 0%
2011-09-08 10:02:16 Agenda Wizard 1.9 0%
2011-09-08 10:05:00 Alcohol 120% 1.9 1705 1.9 0%
2011-09-08 10:05:08 Alert WildCard 1.9 0%
2011-09-08 10:06:47 AnetHelpTool v4.02 Registration 60%
2011-09-08 10:08:30 Arkanoid2000 1.9 0%
2011-09-08 10:09:18 ATani 1.9 0%
2011-09-08 10:12:21 AutoMove 1.9 0%
2011-09-08 10:18:29 Backup Forever 1.9 0%
2011-09-08 10:19:57 BioArc 1.9 0%
2011-09-08 10:20:12 Black List 1.9 0%
2011-09-08 10:20:22 Blanch 1.9 0%
2011-09-08 10:21:42 Browserola v1.01 Temp. Registration 0%
2011-09-08 10:22:06 BuryBury 1.9 0%
2011-09-08 10:22:13 ByeLines Registration 60%
2011-09-08 10:23:35 CammyPlus 1.9 0%
2011-09-08 10:23:40 Candy Crisis Retail 1.9 0%
2011-09-08 10:24:44 CD Wave Editor 1.9 0%
2011-09-08 10:24:56 CDMax 1.9 Build 1.9.2.0 0%
2011-09-08 10:25:06 CDSpace 1.9 0%
2011-09-08 10:25:06 CDWinder 1.9 0%
2011-09-08 10:25:56 Cheyenne Bitware V4.0 Registration Number 60%
2011-09-08 10:26:36 CleanUp 1.9 0%
2011-09-08 10:26:40 Click To Convert 1.9 0%
2011-09-08 10:26:46 Clipboard Box 1.9 0%
2011-09-08 10:32:33 Crystal Player Pro 1.9 0%
2011-09-08 10:42:09 DAS Registration 1.5.2 69%
2011-09-08 10:42:09 DAS Registration For CW5 0%
2011-09-08 10:42:09 DAS Registration v1.5.2 0%
2011-09-08 10:43:09 Desktop Wallpaper Changer 1.9 0%
2011-09-08 10:43:23 Dialog Blocks 1.9 0%
2011-09-08 10:43:25 Diamond Caves II 1.9 0%
2011-09-08 10:45:27 DVD to AVI 1.9 0%
2011-09-08 10:45:29 DVD-TO-MPEG 1.9 42%
2011-09-08 10:45:29 DVD-TO-SVCD 1.9 0%
2011-09-08 10:46:45 eAssist 1.9 0%
2011-09-08 10:49:07 Email Archiver 1.9 0%
2011-09-08 10:49:55 EscapeClose Pro 1.9 0%
2011-09-08 10:49:57 eShopper Deluxe Version: 1.9 0%
2011-09-08 10:55:30 FlashFXP v2.2 build 987 by iND 0%
2011-09-08 10:55:53 Focus MP3 Recorder 1.9 0%
2011-09-08 10:56:02 FolderView 1.9 0%
2011-09-08 10:56:11 FontLook v3.1 Registration Code 86%
2011-09-08 10:56:18 Forte Agent 1.9 0%
2011-09-08 10:56:58 Fractal Morphing Screensaver 1.9 0%
2011-09-08 10:57:42 Ftgate Registration 63%
2011-09-08 11:01:56 Game Arena 1.9 0%
2011-09-08 11:02:23 GeoNav 1.9 0%
2011-09-08 11:02:43 Giganews 1.9 0%
2011-09-08 11:03:04 GoldView 1.9 0%
2011-09-08 11:03:45 GS-Shop 1.9 0%
2011-09-08 11:06:30 Hermes 1.9 0%
2011-09-08 11:14:38 iMagic Survey Pro 1.9 0%
2011-09-08 11:15:16 Infodex v2.10 Registration 0%
2011-09-08 11:15:47 Instant Message Grabber 1.9 0%
2011-09-08 11:15:50 Instant Message Graber 1.9 0%
2011-09-08 11:17:08 IPsearch 1.9 0%
2011-09-08 11:17:10 ipTicker 1.9 0%
2011-09-08 11:17:24 IsoBuster 1.9 0%
2011-09-08 11:18:28 Jammer 1.9 0%
2011-09-08 11:21:56 Komorebi 1.9 0%
2011-09-08 11:22:00 KoolWizard 1.9 0%
2011-09-08 11:25:08 Lazarus Registration DLL v1.0 0%
2011-09-08 11:25:21 LeoNetCDF 1.9 0%
2011-09-08 11:27:15 Loopy 1.9 0%
2011-09-08 11:27:46 Mac Opener v3.0 Registration 57%
2011-09-08 11:29:10 MakeMS 1.9 0%
2011-09-08 11:30:40 mellel 1.9 0%
2011-09-08 11:31:51 Microsoft Registration Hacker 0%
2011-09-08 11:31:51 Microsoft Registration Hacker - 0%
2011-09-08 11:31:51 Microsoft Registration Hacker MSREGHACK 80%
2011-09-08 11:31:51 Microsoft Registration HackerMSREGHACK 0%
2011-09-08 11:31:51 Microsoft Visual Basic 5 registration cd key 72%
2011-09-08 11:31:51 Microsoft Visual C++ Professional v5.0 CD Key 0%
2011-09-08 11:32:07 Microstation v5.xx.xx & 95 FULL REGISTRATION 48%
2011-09-08 11:32:59 mIRC v4.5+ Registration 60%
2011-09-08 11:32:59 mIRC v4.52 Registration 60%
2011-09-08 11:33:11 Mobile Net Switch 1.9 0%
2011-09-08 11:34:07 MP3 Decoder 1.9 40%
2011-09-08 11:34:14 MP3 Recorder XP 1.9 100%
2011-09-08 11:42:30 NewNOTEPAD II 1.9.x 0%
2011-09-08 11:42:43 Nic O'Matic 1.6 Registration Code 50%
2011-09-08 11:42:43 Nic O'Matic v1.6 Registration Code 55%
2011-09-08 12:29:35 pdfMachine 1.9 0%
2011-09-08 12:30:25 Phonebook Lite 1.9 0%
2011-09-08 12:31:56 PhotoPhilia 1.9 0%
2011-09-08 12:33:40 Picture Suite 1.9 0%
2011-09-08 12:33:40 Picture To Icon 1.9 100%
2011-09-08 12:34:57 PolyTrans V1.2E Registration Activator CD-Key 62%
2011-09-08 12:34:57 PolyView v2.9b16 Registration 0%
2011-09-08 12:37:02 Quant v2.0 Registration 0%
2011-09-08 12:37:15 Quick CD Ripper 1.9 0%
2011-09-08 12:40:50 RealSpeed 1.9 0%
2011-09-08 12:40:54 RecomposIt 1.9 40%
2011-09-08 12:41:14 Registration Suite 1.0 60%
2011-09-08 12:41:14 Registration Suite v1.0 60%
2011-09-08 12:41:14 Registration Wizard Pro 5.01 0%
2011-09-08 12:41:14 Registration Wizard Pro v5.01 60%
2011-09-08 12:43:38 RipCast 1.9 0%
2011-09-08 12:44:06 Route 66 1.9 0%
2011-09-08 12:46:03 Scribbler 2000 1.9 0%
2011-09-08 12:46:28 SecureFX 1.9 0%
2011-09-08 12:46:54 Serlient 1.9 0%
2011-09-08 12:48:14 Sketsa 1.9 0%
2011-09-08 12:52:48 Texturizer 1.9 0%
2011-09-08 12:53:09 The FlyDS 1.9 0%
2011-09-08 12:54:09 Time Registration (German) 1.10 0%
2011-09-08 12:54:14 TimeSlips 10.5 enterprise - with registration code! 0%
2011-09-08 12:55:03 Total Visual Developer Suite 2000 1.0 0%
2011-09-08 12:55:03 Total Visual Developer Suite 2000 v1.0 0%
2011-09-08 12:57:55 SQL Converter 1.9 0%
2011-09-08 12:59:30 Super Collapse Registration 100%
2011-09-08 13:08:27 Unios 1.9 0%
2011-09-08 13:08:48 URLegal 1.9 0%
2011-09-08 13:08:48 USB LOCK AP 1.9 63%
2011-09-08 13:12:41 Visual CertExam Suite 1.0.251 0%
2011-09-08 13:12:41 Visual CertExam Suite 1.1.284 0%
2011-09-08 13:12:41 Visual CertExam Suite v1.0.251 0%
2011-09-08 13:12:41 Visual CertExam Suite v1.1.284 0%
2011-09-08 13:12:41 Visual Developer's Suite Deal CD 0%
2011-09-08 13:12:41 Visual Developers Suite Deal CD 0%
2011-09-08 13:12:41 Visual Developers Suite Deal Win95 0%
2011-09-08 13:12:44 Visual Key 1.0 0%
2011-09-08 13:12:45 Visual Key 1.0.33 0%
2011-09-08 13:12:45 Visual Key Control System CS Edition 1.5.0 0%
2011-09-08 13:12:45 Visual Key Control System CS Edition v1.5.0 0%
2011-09-08 13:12:45 Visual Key Control System SQL Edition 1.0.0 0%
2011-09-08 13:12:45 Visual Key Control System SQL Edition v1.0.0 60%
2011-09-08 13:12:45 Visual Key v1.0 0%
2011-09-08 13:12:45 Visual Key v1.0.33 0%
2011-09-08 13:12:46 Visual Mail Interface Client & Server Suite 1.0 0%
2011-09-08 13:12:46 Visual Mail Interface Client & Server Suite v1.0 0%
2011-09-08 13:13:09 Volume Balancer 1.9 0%
2011-09-08 13:16:42 WebMerge 1.9 0%
2011-09-08 13:16:46 Webroot Spam Shredder 1.9 0%
2011-09-08 13:17:13 Whistle 1.9 0%
2011-09-08 13:17:18 Willing Webcam 1.9 0%
2011-09-08 13:18:59 WinHacker 95 v2.02 Registration 57%
2011-09-08 13:23:15 Yipe! II for Windows Registration #154 0%
2012-12-12 00:41:14 Alcohol 120% 1.9.x 0%
2012-12-12 08:07:32 Download avast 5.0.667 Antivirus registration 0%
2012-12-12 19:40:26 Microsoft Visual Basic 2008 Express Edition Registration key 20%